TimeSAST,TemperatureF,Dew PointF,Humidity,Sea Level PressureIn,VisibilityMPH,Wind Direction,Wind SpeedMPH,Gust SpeedMPH,PrecipitationIn,Events,Conditions,WindDirDegrees,DateUTC
12:00 AM,60.8,57.2,88,30.18,6.2,NW,5.8,-,N/A,,Overcast,320,2012-11-06 22:00:00
1:00 AM,60.8,57.2,88,30.15,6.2,WNW,4.6,-,N/A,,Overcast,290,2012-11-06 23:00:00
2:00 AM,60,57,87,30.16,4,NW,5.8,,,,,310,2012-11-07 00:00:00
2:00 AM,59.0,57.2,94,30.15,4.3,NW,5.8,-,N/A,Rain,Light Rain,310,2012-11-07 00:00:00
3:00 AM,59.0,57.2,94,30.15,6.2,NNW,5.8,-,N/A,,Mostly Cloudy,330,2012-11-07 01:00:00
4:00 AM,59.0,55.4,88,30.15,3.1,SSW,9.2,-,N/A,,Heavy Drizzle,200,2012-11-07 02:00:00
5:00 AM,59.0,57.2,94,30.18,6.2,South,3.5,-,N/A,,Mostly Cloudy,170,2012-11-07 03:00:00
6:00 AM,59.0,55.4,88,30.18,6.2,North,4.6,-,N/A,,Mostly Cloudy,360,2012-11-07 04:00:00
7:00 AM,59.0,57.2,94,30.21,6.2,North,3.5,-,N/A,,Mostly Cloudy,360,2012-11-07 05:00:00
8:00 AM,60,55,78,30.22,12,North,4.6,,,,Partly Cloudy,350,2012-11-07 06:00:00
8:00 AM,60.8,55.4,82,30.21,6.2,North,4.6,-,N/A,,Mostly Cloudy,350,2012-11-07 06:00:00
9:00 AM,62.6,55.4,77,30.21,6.2,Variable,2.3,-,N/A,,Mostly Cloudy,0,2012-11-07 07:00:00
10:00 AM,64.4,53.6,68,30.21,6.2,SW,4.6,-,N/A,,Mostly Cloudy,230,2012-11-07 08:00:00
11:00 AM,65,52,53,30.23,12,South,8.1,,,,Mostly Cloudy,190,2012-11-07 09:00:00
11:00 AM,64.4,51.8,64,30.24,6.2,South,6.9,-,N/A,,Mostly Cloudy,190,2012-11-07 09:00:00
12:00 PM,66.2,51.8,60,30.21,6.2,South,6.9,-,N/A,,Partly Cloudy,190,2012-11-07 10:00:00
1:00 PM,66.2,53.6,64,30.21,6.2,SSE,10.4,-,N/A,,Partly Cloudy,160,2012-11-07 11:00:00
2:00 PM,66,54,55,30.22,12,South,11.5,,,,Partly Cloudy,170,2012-11-07 12:00:00
2:00 PM,68.0,53.6,60,30.21,6.2,South,10.4,-,N/A,,Scattered Clouds,170,2012-11-07 12:00:00
3:00 PM,68.0,53.6,60,30.21,6.2,SSE,9.2,-,N/A,,Scattered Clouds,160,2012-11-07 13:00:00
4:00 PM,64.4,55.4,73,30.21,6.2,SE,11.5,-,N/A,,Scattered Clouds,140,2012-11-07 14:00:00
5:00 PM,66,55,60,30.23,12,SE,9.2,,,,Mostly Cloudy,140,2012-11-07 15:00:00
5:00 PM,66.2,55.4,68,30.24,6.2,SE,9.2,-,N/A,,Mostly Cloudy,140,2012-11-07 15:00:00
6:00 PM,62.6,55.4,77,30.21,6.2,SE,6.9,-,N/A,,Mostly Cloudy,130,2012-11-07 16:00:00
7:00 PM,60.8,57.2,88,30.24,6.2,SE,5.8,-,N/A,,Mostly Cloudy,130,2012-11-07 17:00:00
8:00 PM,61,57,81,30.27,12,SE,9.2,,,,Mostly Cloudy,130,2012-11-07 18:00:00
8:00 PM,60.8,55.4,82,30.27,6.2,ESE,9.2,-,N/A,,Scattered Clouds,120,2012-11-07 18:00:00
9:00 PM,59.0,55.4,88,30.27,6.2,East,4.6,-,N/A,,Mostly Cloudy,100,2012-11-07 19:00:00
10:00 PM,59.0,55.4,88,30.27,6.2,East,6.9,-,N/A,,Scattered Clouds,80,2012-11-07 20:00:00
11:00 PM,57.2,53.6,88,30.27,6.2,East,4.6,-,N/A,,Mostly Cloudy,100,2012-11-07 21:00:00